#datetime,building,power
2023-11-30T00:00:00,mcc,45.17
2023-11-30T00:01:00,mcc,44.43
2023-11-30T00:02:00,mcc,45.95
2023-11-30T00:03:00,mcc,47.39
2023-11-30T00:04:00,mcc,46.64
2023-11-30T00:05:00,mcc,46.84
2023-11-30T00:06:00,mcc,49.02
2023-11-30T00:07:00,mcc,48.54
2023-11-30T00:08:00,mcc,47.04
2023-11-30T00:09:00,mcc,45.70
2023-11-30T00:10:00,mcc,43.38
2023-11-30T00:11:00,mcc,45.81
2023-11-30T00:12:00,mcc,47.32
2023-11-30T00:13:00,mcc,44.54
2023-11-30T00:14:00,mcc,43.17
2023-11-30T00:15:00,mcc,45.58
2023-11-30T00:16:00,mcc,44.08
2023-11-30T00:17:00,mcc,44.62
2023-11-30T00:18:00,mcc,47.72
2023-11-30T00:19:00,mcc,52.56
2023-11-30T00:20:00,mcc,44.65
2023-11-30T00:21:00,mcc,46.59
2023-11-30T00:22:00,mcc,44.55
2023-11-30T00:23:00,mcc,51.15
2023-11-30T00:24:00,mcc,46.52
2023-11-30T00:25:00,mcc,45.45
2023-11-30T00:26:00,mcc,45.30
2023-11-30T00:27:00,mcc,47.06
2023-11-30T00:28:00,mcc,36.24
2023-11-30T00:29:00,mcc,36.10
2023-11-30T00:30:00,mcc,39.49
2023-11-30T00:31:00,mcc,38.57
2023-11-30T00:32:00,mcc,40.50
2023-11-30T00:33:00,mcc,42.37
2023-11-30T00:34:00,mcc,40.19
2023-11-30T00:35:00,mcc,39.59
2023-11-30T00:36:00,mcc,37.88
2023-11-30T00:37:00,mcc,38.80
2023-11-30T00:38:00,mcc,47.40
2023-11-30T00:39:00,mcc,38.11
2023-11-30T00:40:00,mcc,39.89
2023-11-30T00:41:00,mcc,39.95
2023-11-30T00:42:00,mcc,38.59
2023-11-30T00:43:00,mcc,38.05
2023-11-30T00:44:00,mcc,38.03
2023-11-30T00:45:00,mcc,37.74
2023-11-30T00:46:00,mcc,39.19
2023-11-30T00:47:00,mcc,40.66
2023-11-30T00:48:00,mcc,39.34
2023-11-30T00:49:00,mcc,38.89
2023-11-30T00:50:00,mcc,40.84
2023-11-30T00:51:00,mcc,37.50
2023-11-30T00:52:00,mcc,35.40
2023-11-30T00:53:00,mcc,36.98
2023-11-30T00:54:00,mcc,35.04
2023-11-30T00:55:00,mcc,33.08
2023-11-30T00:56:00,mcc,35.78
2023-11-30T00:57:00,mcc,41.72
2023-11-30T00:58:00,mcc,34.43
2023-11-30T00:59:00,mcc,37.65
2023-11-30T01:00:00,mcc,35.56
2023-11-30T01:01:00,mcc,37.26
2023-11-30T01:02:00,mcc,37.95
2023-11-30T01:03:00,mcc,32.84
2023-11-30T01:04:00,mcc,31.91
2023-11-30T01:05:00,mcc,35.38
2023-11-30T01:06:00,mcc,32.55
2023-11-30T01:07:00,mcc,33.75
2023-11-30T01:08:00,mcc,37.57
2023-11-30T01:09:00,mcc,35.11
2023-11-30T01:10:00,mcc,33.77
2023-11-30T01:11:00,mcc,36.03
2023-11-30T01:12:00,mcc,31.92
2023-11-30T01:13:00,mcc,33.23
2023-11-30T01:14:00,mcc,32.83
2023-11-30T01:15:00,mcc,32.14
2023-11-30T01:16:00,mcc,42.70
2023-11-30T01:17:00,mcc,31.07
2023-11-30T01:18:00,mcc,32.62
2023-11-30T01:19:00,mcc,32.58
2023-11-30T01:20:00,mcc,33.51
2023-11-30T01:21:00,mcc,35.46
2023-11-30T01:22:00,mcc,37.02
2023-11-30T01:23:00,mcc,34.30
2023-11-30T01:24:00,mcc,32.63
2023-11-30T01:25:00,mcc,32.39
2023-11-30T01:26:00,mcc,33.87
2023-11-30T01:27:00,mcc,38.51
2023-11-30T01:28:00,mcc,37.04
2023-11-30T01:29:00,mcc,35.69
2023-11-30T01:30:00,mcc,36.67
2023-11-30T01:31:00,mcc,36.30
2023-11-30T01:32:00,mcc,35.37
2023-11-30T01:33:00,mcc,33.53
2023-11-30T01:34:00,mcc,36.84
2023-11-30T01:35:00,mcc,41.32
2023-11-30T01:36:00,mcc,36.61
2023-11-30T01:37:00,mcc,37.34
2023-11-30T01:38:00,mcc,35.70
2023-11-30T01:39:00,mcc,34.44
2023-11-30T01:40:00,mcc,35.72
2023-11-30T01:41:00,mcc,33.90
2023-11-30T01:42:00,mcc,32.80
2023-11-30T01:43:00,mcc,35.14
2023-11-30T01:44:00,mcc,32.35
2023-11-30T01:45:00,mcc,32.96
2023-11-30T01:46:00,mcc,35.24
2023-11-30T01:47:00,mcc,34.17
2023-11-30T01:48:00,mcc,35.78
2023-11-30T01:49:00,mcc,38.63
2023-11-30T01:50:00,mcc,35.91
2023-11-30T01:51:00,mcc,34.91
2023-11-30T01:52:00,mcc,35.85
2023-11-30T01:53:00,mcc,32.30
2023-11-30T01:54:00,mcc,33.57
2023-11-30T01:55:00,mcc,34.28
2023-11-30T01:56:00,mcc,32.29
2023-11-30T01:57:00,mcc,36.00
2023-11-30T01:58:00,mcc,33.10
2023-11-30T01:59:00,mcc,34.18
2023-11-30T02:00:00,mcc,35.76
2023-11-30T02:01:00,mcc,34.23
2023-11-30T02:02:00,mcc,32.75
2023-11-30T02:03:00,mcc,35.31
2023-11-30T02:04:00,mcc,35.00
2023-11-30T02:05:00,mcc,36.00
2023-11-30T02:06:00,mcc,36.73
2023-11-30T02:07:00,mcc,34.80
2023-11-30T02:08:00,mcc,33.09
2023-11-30T02:09:00,mcc,35.17
2023-11-30T02:10:00,mcc,32.24
2023-11-30T02:11:00,mcc,31.97
2023-11-30T02:12:00,mcc,35.88
2023-11-30T02:13:00,mcc,41.65
2023-11-30T02:14:00,mcc,35.54
2023-11-30T02:15:00,mcc,36.70
2023-11-30T02:16:00,mcc,34.99
2023-11-30T02:17:00,mcc,35.08
2023-11-30T02:18:00,mcc,35.43
2023-11-30T02:19:00,mcc,32.46
2023-11-30T02:20:00,mcc,32.37
2023-11-30T02:21:00,mcc,34.76
2023-11-30T02:22:00,mcc,31.04
2023-11-30T02:23:00,mcc,29.81
2023-11-30T02:24:00,mcc,31.82
2023-11-30T02:25:00,mcc,31.56
2023-11-30T02:26:00,mcc,33.46
2023-11-30T02:27:00,mcc,35.97
2023-11-30T02:28:00,mcc,33.73
2023-11-30T02:29:00,mcc,32.91
2023-11-30T02:30:00,mcc,34.85
2023-11-30T02:31:00,mcc,31.74
2023-11-30T02:32:00,mcc,40.40
2023-11-30T02:33:00,mcc,31.69
2023-11-30T02:34:00,mcc,32.17
2023-11-30T02:35:00,mcc,33.73
2023-11-30T02:36:00,mcc,35.14
2023-11-30T02:37:00,mcc,44.19
2023-11-30T02:38:00,mcc,46.26
2023-11-30T02:39:00,mcc,45.91
2023-11-30T02:40:00,mcc,37.75
2023-11-30T02:41:00,mcc,37.33
2023-11-30T02:42:00,mcc,39.49
2023-11-30T02:43:00,mcc,37.87
2023-11-30T02:44:00,mcc,35.84
2023-11-30T02:45:00,mcc,34.43
2023-11-30T02:46:00,mcc,31.52
2023-11-30T02:47:00,mcc,32.83
2023-11-30T02:48:00,mcc,33.38
2023-11-30T02:49:00,mcc,33.03
2023-11-30T02:50:00,mcc,32.84
2023-11-30T02:51:00,mcc,32.51
2023-11-30T02:52:00,mcc,34.53
2023-11-30T02:53:00,mcc,35.84
2023-11-30T02:54:00,mcc,35.97
2023-11-30T02:55:00,mcc,32.85
2023-11-30T02:56:00,mcc,34.77
2023-11-30T02:57:00,mcc,31.52
2023-11-30T02:58:00,mcc,30.46
2023-11-30T02:59:00,mcc,33.02
2023-11-30T03:00:00,mcc,30.27
2023-11-30T03:01:00,mcc,32.07
2023-11-30T03:02:00,mcc,35.66
2023-11-30T03:03:00,mcc,31.89
2023-11-30T03:04:00,mcc,33.40
2023-11-30T03:05:00,mcc,33.97
2023-11-30T03:06:00,mcc,31.64
2023-11-30T03:07:00,mcc,32.19
2023-11-30T03:08:00,mcc,34.88
2023-11-30T03:09:00,mcc,32.91
2023-11-30T03:10:00,mcc,41.83
2023-11-30T03:11:00,mcc,32.78
2023-11-30T03:12:00,mcc,30.10
2023-11-30T03:13:00,mcc,29.12
2023-11-30T03:14:00,mcc,33.48
2023-11-30T03:15:00,mcc,32.32
2023-11-30T03:16:00,mcc,33.82
2023-11-30T03:17:00,mcc,36.94
2023-11-30T03:18:00,mcc,35.41
2023-11-30T03:19:00,mcc,34.57
2023-11-30T03:20:00,mcc,36.26
2023-11-30T03:21:00,mcc,33.62
2023-11-30T03:22:00,mcc,34.66
2023-11-30T03:23:00,mcc,32.50
2023-11-30T03:24:00,mcc,32.95
2023-11-30T03:25:00,mcc,32.95
2023-11-30T03:26:00,mcc,37.81
2023-11-30T03:27:00,mcc,35.03
2023-11-30T03:28:00,mcc,34.62
2023-11-30T03:29:00,mcc,36.27
2023-11-30T03:30:00,mcc,43.41
2023-11-30T03:31:00,mcc,35.18
2023-11-30T03:32:00,mcc,34.17
2023-11-30T03:33:00,mcc,30.31
2023-11-30T03:34:00,mcc,30.75
2023-11-30T03:35:00,mcc,30.57
2023-11-30T03:36:00,mcc,31.05
2023-11-30T03:37:00,mcc,31.05
2023-11-30T03:38:00,mcc,30.74
2023-11-30T03:39:00,mcc,31.57
2023-11-30T03:40:00,mcc,30.92
2023-11-30T03:41:00,mcc,33.83
2023-11-30T03:42:00,mcc,33.95
2023-11-30T03:43:00,mcc,32.20
2023-11-30T03:44:00,mcc,33.77
2023-11-30T03:45:00,mcc,34.94
2023-11-30T03:46:00,mcc,32.42
2023-11-30T03:47:00,mcc,34.46
2023-11-30T03:48:00,mcc,32.13
2023-11-30T03:49:00,mcc,32.27
2023-11-30T03:50:00,mcc,34.02
2023-11-30T03:51:00,mcc,34.40
2023-11-30T03:52:00,mcc,38.12
2023-11-30T03:53:00,mcc,40.17
2023-11-30T03:54:00,mcc,36.26
2023-11-30T03:55:00,mcc,36.06
2023-11-30T03:56:00,mcc,35.42
2023-11-30T03:57:00,mcc,35.91
2023-11-30T03:58:00,mcc,33.57
2023-11-30T03:59:00,mcc,43.77
2023-11-30T04:00:00,mcc,40.27
2023-11-30T04:01:00,mcc,40.50
2023-11-30T04:02:00,mcc,41.45
2023-11-30T04:03:00,mcc,38.62
2023-11-30T04:04:00,mcc,40.13
2023-11-30T04:05:00,mcc,34.05
2023-11-30T04:06:00,mcc,31.64
2023-11-30T04:07:00,mcc,37.26
2023-11-30T04:08:00,mcc,33.77
2023-11-30T04:09:00,mcc,42.77
2023-11-30T04:10:00,mcc,35.83
2023-11-30T04:11:00,mcc,34.80
2023-11-30T04:12:00,mcc,32.01
2023-11-30T04:13:00,mcc,34.95
2023-11-30T04:14:00,mcc,32.84
2023-11-30T04:15:00,mcc,31.85
2023-11-30T04:16:00,mcc,37.76
2023-11-30T04:17:00,mcc,39.47
2023-11-30T04:18:00,mcc,37.37
2023-11-30T04:19:00,mcc,38.13
2023-11-30T04:20:00,mcc,35.90
2023-11-30T04:21:00,mcc,35.09
2023-11-30T04:22:00,mcc,35.72
2023-11-30T04:23:00,mcc,33.44
2023-11-30T04:24:00,mcc,34.60
2023-11-30T04:25:00,mcc,39.07
2023-11-30T04:26:00,mcc,36.40
2023-11-30T04:27:00,mcc,34.79
2023-11-30T04:28:00,mcc,47.81
2023-11-30T04:29:00,mcc,44.70
2023-11-30T04:30:00,mcc,37.08
2023-11-30T04:31:00,mcc,41.23
2023-11-30T04:32:00,mcc,37.97
2023-11-30T04:33:00,mcc,37.29
2023-11-30T04:34:00,mcc,36.85
2023-11-30T04:35:00,mcc,37.65
2023-11-30T04:36:00,mcc,36.59
2023-11-30T04:37:00,mcc,38.71
2023-11-30T04:38:00,mcc,35.87
2023-11-30T04:39:00,mcc,36.23
2023-11-30T04:40:00,mcc,36.49
2023-11-30T04:41:00,mcc,37.59
2023-11-30T04:42:00,mcc,39.36
2023-11-30T04:43:00,mcc,42.16
2023-11-30T04:44:00,mcc,38.23
2023-11-30T04:45:00,mcc,38.49
2023-11-30T04:46:00,mcc,39.68
2023-11-30T04:47:00,mcc,36.34
2023-11-30T04:48:00,mcc,36.67
2023-11-30T04:49:00,mcc,37.11
2023-11-30T04:50:00,mcc,36.45
2023-11-30T04:51:00,mcc,36.14
2023-11-30T04:52:00,mcc,35.62
2023-11-30T04:53:00,mcc,36.05
2023-11-30T04:54:00,mcc,34.56
2023-11-30T04:55:00,mcc,37.28
2023-11-30T04:56:00,mcc,37.14
2023-11-30T04:57:00,mcc,34.86
2023-11-30T04:58:00,mcc,35.70
2023-11-30T04:59:00,mcc,38.48
2023-11-30T05:00:00,mcc,34.73
2023-11-30T05:01:00,mcc,34.41
2023-11-30T05:02:00,mcc,34.82
2023-11-30T05:03:00,mcc,33.99
2023-11-30T05:04:00,mcc,36.46
2023-11-30T05:05:00,mcc,39.28
2023-11-30T05:06:00,mcc,37.72
2023-11-30T05:07:00,mcc,37.99
2023-11-30T05:08:00,mcc,39.30
2023-11-30T05:09:00,mcc,37.64
2023-11-30T05:10:00,mcc,37.57
2023-11-30T05:11:00,mcc,38.58
2023-11-30T05:12:00,mcc,35.18
2023-11-30T05:13:00,mcc,36.09
2023-11-30T05:14:00,mcc,39.28
2023-11-30T05:15:00,mcc,37.05
2023-11-30T05:16:00,mcc,36.04
2023-11-30T05:17:00,mcc,37.59
2023-11-30T05:18:00,mcc,33.35
2023-11-30T05:19:00,mcc,34.19
2023-11-30T05:20:00,mcc,36.95
2023-11-30T05:21:00,mcc,37.16
2023-11-30T05:22:00,mcc,36.84
2023-11-30T05:23:00,mcc,41.27
2023-11-30T05:24:00,mcc,38.47
2023-11-30T05:25:00,mcc,36.46
2023-11-30T05:26:00,mcc,38.28
2023-11-30T05:27:00,mcc,34.09
2023-11-30T05:28:00,mcc,34.46
2023-11-30T05:29:00,mcc,36.46
2023-11-30T05:30:00,mcc,38.89
2023-11-30T05:31:00,mcc,38.76
2023-11-30T05:32:00,mcc,42.05
2023-11-30T05:33:00,mcc,40.50
2023-11-30T05:34:00,mcc,38.78
2023-11-30T05:35:00,mcc,39.09
2023-11-30T05:36:00,mcc,38.21
2023-11-30T05:37:00,mcc,38.89
2023-11-30T05:38:00,mcc,40.27
2023-11-30T05:39:00,mcc,36.84
2023-11-30T05:40:00,mcc,36.05
2023-11-30T05:41:00,mcc,36.51
2023-11-30T05:42:00,mcc,35.46
2023-11-30T05:43:00,mcc,33.89
2023-11-30T05:44:00,mcc,34.90
2023-11-30T05:45:00,mcc,33.24
2023-11-30T05:46:00,mcc,35.47
2023-11-30T05:47:00,mcc,36.67
2023-11-30T05:48:00,mcc,31.94
2023-11-30T05:49:00,mcc,31.71
2023-11-30T05:50:00,mcc,33.12
2023-11-30T05:51:00,mcc,32.34
2023-11-30T05:52:00,mcc,32.99
2023-11-30T05:53:00,mcc,36.65
2023-11-30T05:54:00,mcc,35.17
2023-11-30T05:55:00,mcc,32.78
2023-11-30T05:56:00,mcc,36.77
2023-11-30T05:57:00,mcc,33.94
2023-11-30T05:58:00,mcc,34.30
2023-11-30T05:59:00,mcc,39.93
2023-11-30T06:00:00,mcc,37.72
2023-11-30T06:01:00,mcc,36.49
2023-11-30T06:02:00,mcc,39.08
2023-11-30T06:03:00,mcc,35.10
2023-11-30T06:04:00,mcc,35.47
2023-11-30T06:05:00,mcc,36.23
2023-11-30T06:06:00,mcc,35.57
2023-11-30T06:07:00,mcc,42.62
2023-11-30T06:08:00,mcc,36.00
2023-11-30T06:09:00,mcc,35.49
2023-11-30T06:10:00,mcc,35.35
2023-11-30T06:11:00,mcc,38.74
2023-11-30T06:12:00,mcc,37.69
2023-11-30T06:13:00,mcc,37.86
2023-11-30T06:14:00,mcc,37.79
2023-11-30T06:15:00,mcc,34.68
2023-11-30T06:16:00,mcc,36.03
2023-11-30T06:17:00,mcc,36.27
2023-11-30T06:18:00,mcc,33.66
2023-11-30T06:19:00,mcc,34.19
2023-11-30T06:20:00,mcc,39.14
2023-11-30T06:21:00,mcc,39.63
2023-11-30T06:22:00,mcc,37.27
2023-11-30T06:23:00,mcc,38.53
2023-11-30T06:24:00,mcc,38.93
2023-11-30T06:25:00,mcc,39.31
2023-11-30T06:26:00,mcc,49.30
2023-11-30T06:27:00,mcc,43.52
2023-11-30T06:28:00,mcc,54.47
2023-11-30T06:29:00,mcc,54.89
2023-11-30T06:30:00,mcc,62.45
2023-11-30T06:31:00,mcc,59.71
2023-11-30T06:32:00,mcc,60.09
2023-11-30T06:33:00,mcc,50.69
2023-11-30T06:34:00,mcc,53.36
2023-11-30T06:35:00,mcc,53.42
2023-11-30T06:36:00,mcc,52.84
2023-11-30T06:37:00,mcc,52.42
2023-11-30T06:38:00,mcc,50.41
2023-11-30T06:39:00,mcc,57.34
2023-11-30T06:40:00,mcc,56.36
2023-11-30T06:41:00,mcc,48.79
2023-11-30T06:42:00,mcc,40.98
2023-11-30T06:43:00,mcc,41.54
2023-11-30T06:44:00,mcc,41.65
2023-11-30T06:45:00,mcc,37.25
2023-11-30T06:46:00,mcc,41.36
2023-11-30T06:47:00,mcc,42.86
2023-11-30T06:48:00,mcc,45.15
2023-11-30T06:49:00,mcc,53.33
2023-11-30T06:50:00,mcc,44.49
2023-11-30T06:51:00,mcc,50.08
2023-11-30T06:52:00,mcc,41.74
2023-11-30T06:53:00,mcc,42.36
2023-11-30T06:54:00,mcc,41.43
2023-11-30T06:55:00,mcc,41.17
2023-11-30T06:56:00,mcc,42.94
2023-11-30T06:57:00,mcc,41.72
2023-11-30T06:58:00,mcc,47.27
2023-11-30T06:59:00,mcc,39.93
2023-11-30T07:00:00,mcc,39.03
2023-11-30T07:01:00,mcc,49.13
2023-11-30T07:02:00,mcc,46.07
2023-11-30T07:03:00,mcc,46.06
2023-11-30T07:04:00,mcc,54.51
2023-11-30T07:05:00,mcc,58.78
2023-11-30T07:06:00,mcc,52.50
2023-11-30T07:07:00,mcc,54.32
2023-11-30T07:08:00,mcc,60.09
2023-11-30T07:09:00,mcc,50.28
2023-11-30T07:10:00,mcc,51.99
2023-11-30T07:11:00,mcc,50.35
2023-11-30T07:12:00,mcc,54.31
2023-11-30T07:13:00,mcc,58.96
2023-11-30T07:14:00,mcc,51.13
2023-11-30T07:15:00,mcc,51.74
2023-11-30T07:16:00,mcc,55.76
2023-11-30T07:17:00,mcc,49.52
2023-11-30T07:18:00,mcc,60.98
2023-11-30T07:19:00,mcc,57.43
2023-11-30T07:20:00,mcc,48.76
2023-11-30T07:21:00,mcc,52.83
2023-11-30T07:22:00,mcc,51.06
2023-11-30T07:23:00,mcc,51.94
2023-11-30T07:24:00,mcc,59.72
2023-11-30T07:25:00,mcc,49.44
2023-11-30T07:26:00,mcc,54.85
2023-11-30T07:27:00,mcc,54.41
2023-11-30T07:28:00,mcc,56.54
2023-11-30T07:29:00,mcc,64.15
2023-11-30T07:30:00,mcc,63.17
2023-11-30T07:31:00,mcc,59.79
2023-11-30T07:32:00,mcc,68.40
2023-11-30T07:33:00,mcc,67.38
2023-11-30T07:34:00,mcc,67.08
2023-11-30T07:35:00,mcc,68.67
2023-11-30T07:36:00,mcc,51.94
2023-11-30T07:37:00,mcc,55.05
2023-11-30T07:38:00,mcc,56.56
2023-11-30T07:39:00,mcc,58.40
2023-11-30T07:40:00,mcc,69.06
2023-11-30T07:41:00,mcc,58.49
2023-11-30T07:42:00,mcc,57.48
2023-11-30T07:43:00,mcc,69.32
2023-11-30T07:44:00,mcc,60.54
2023-11-30T07:45:00,mcc,60.28
2023-11-30T07:46:00,mcc,63.46
2023-11-30T07:47:00,mcc,59.62
2023-11-30T07:48:00,mcc,76.32
2023-11-30T07:49:00,mcc,59.72
2023-11-30T07:50:00,mcc,64.50
2023-11-30T07:51:00,mcc,65.45
2023-11-30T07:52:00,mcc,63.87
2023-11-30T07:53:00,mcc,63.85
2023-11-30T07:54:00,mcc,65.24
2023-11-30T07:55:00,mcc,64.18
2023-11-30T07:56:00,mcc,63.70
2023-11-30T07:57:00,mcc,56.19
2023-11-30T07:58:00,mcc,52.94
2023-11-30T07:59:00,mcc,59.10
2023-11-30T08:00:00,mcc,56.38
2023-11-30T08:01:00,mcc,62.12
2023-11-30T08:02:00,mcc,71.56
2023-11-30T08:03:00,mcc,63.93
2023-11-30T08:04:00,mcc,67.19
2023-11-30T08:05:00,mcc,62.01
2023-11-30T08:06:00,mcc,59.49
2023-11-30T08:07:00,mcc,58.01
2023-11-30T08:08:00,mcc,54.10
2023-11-30T08:09:00,mcc,53.80
2023-11-30T08:10:00,mcc,69.15
2023-11-30T08:11:00,mcc,54.73
2023-11-30T08:12:00,mcc,71.24
2023-11-30T08:13:00,mcc,55.21
2023-11-30T08:14:00,mcc,60.20
2023-11-30T08:15:00,mcc,56.90
2023-11-30T08:16:00,mcc,60.19
2023-11-30T08:17:00,mcc,57.33
2023-11-30T08:18:00,mcc,56.07
2023-11-30T08:19:00,mcc,53.85
2023-11-30T08:20:00,mcc,52.67
2023-11-30T08:21:00,mcc,61.59
2023-11-30T08:22:00,mcc,51.63
2023-11-30T08:23:00,mcc,65.79
2023-11-30T08:24:00,mcc,64.15
2023-11-30T08:25:00,mcc,67.53
2023-11-30T08:26:00,mcc,60.04
2023-11-30T08:27:00,mcc,60.89
2023-11-30T08:28:00,mcc,58.26
2023-11-30T08:29:00,mcc,59.93
2023-11-30T08:30:00,mcc,56.06
2023-11-30T08:31:00,mcc,56.64
2023-11-30T08:32:00,mcc,66.22
2023-11-30T08:33:00,mcc,58.11
2023-11-30T08:34:00,mcc,53.11
2023-11-30T08:35:00,mcc,62.44
2023-11-30T08:36:00,mcc,67.00
2023-11-30T08:37:00,mcc,59.57
2023-11-30T08:38:00,mcc,56.53
2023-11-30T08:39:00,mcc,64.86
2023-11-30T08:40:00,mcc,56.91
2023-11-30T08:41:00,mcc,55.74
2023-11-30T08:42:00,mcc,56.92
2023-11-30T08:43:00,mcc,65.65
2023-11-30T08:44:00,mcc,55.40
2023-11-30T08:45:00,mcc,55.36
2023-11-30T08:46:00,mcc,65.88
2023-11-30T08:47:00,mcc,58.97
2023-11-30T08:48:00,mcc,55.62
2023-11-30T08:49:00,mcc,60.46
2023-11-30T08:50:00,mcc,57.07
2023-11-30T08:51:00,mcc,58.92
2023-11-30T08:52:00,mcc,56.00
2023-11-30T08:53:00,mcc,65.49
2023-11-30T08:54:00,mcc,55.99
2023-11-30T08:55:00,mcc,60.58
2023-11-30T08:56:00,mcc,68.66
2023-11-30T08:57:00,mcc,66.67
2023-11-30T08:58:00,mcc,76.31
2023-11-30T08:59:00,mcc,65.33
2023-11-30T09:00:00,mcc,63.93
2023-11-30T09:01:00,mcc,56.30
2023-11-30T09:02:00,mcc,53.21
2023-11-30T09:03:00,mcc,54.05
2023-11-30T09:04:00,mcc,56.67
2023-11-30T09:05:00,mcc,59.98
2023-11-30T09:06:00,mcc,56.96
2023-11-30T09:07:00,mcc,55.36
2023-11-30T09:08:00,mcc,56.66
2023-11-30T09:09:00,mcc,61.73
2023-11-30T09:10:00,mcc,73.18
2023-11-30T09:11:00,mcc,56.26
2023-11-30T09:12:00,mcc,59.61
2023-11-30T09:13:00,mcc,61.85
2023-11-30T09:14:00,mcc,60.89
2023-11-30T09:15:00,mcc,66.61
2023-11-30T09:16:00,mcc,69.71
2023-11-30T09:17:00,mcc,60.08
2023-11-30T09:18:00,mcc,57.70
2023-11-30T09:19:00,mcc,65.27
2023-11-30T09:20:00,mcc,60.14
2023-11-30T09:21:00,mcc,61.43
2023-11-30T09:22:00,mcc,61.37
2023-11-30T09:23:00,mcc,58.04
2023-11-30T09:24:00,mcc,60.70
2023-11-30T09:25:00,mcc,60.05
2023-11-30T09:26:00,mcc,61.32
2023-11-30T09:27:00,mcc,59.61
2023-11-30T09:28:00,mcc,59.91
2023-11-30T09:29:00,mcc,58.54
2023-11-30T09:30:00,mcc,56.78
2023-11-30T09:31:00,mcc,58.58
2023-11-30T09:32:00,mcc,58.54
2023-11-30T09:33:00,mcc,59.91
2023-11-30T09:34:00,mcc,67.19
2023-11-30T09:35:00,mcc,63.70
2023-11-30T09:36:00,mcc,69.86
2023-11-30T09:37:00,mcc,67.07
2023-11-30T09:38:00,mcc,68.35
2023-11-30T09:39:00,mcc,60.46
2023-11-30T09:40:00,mcc,71.76
2023-11-30T09:41:00,mcc,63.02
2023-11-30T09:42:00,mcc,61.89
2023-11-30T09:43:00,mcc,58.97
2023-11-30T09:44:00,mcc,59.04
2023-11-30T09:45:00,mcc,60.05
2023-11-30T09:46:00,mcc,67.54
2023-11-30T09:47:00,mcc,57.45
2023-11-30T09:48:00,mcc,57.36
2023-11-30T09:49:00,mcc,58.33
2023-11-30T09:50:00,mcc,60.67
2023-11-30T09:51:00,mcc,59.67
2023-11-30T09:52:00,mcc,68.62
2023-11-30T09:53:00,mcc,72.50
2023-11-30T09:54:00,mcc,70.56
2023-11-30T09:55:00,mcc,58.26
2023-11-30T09:56:00,mcc,59.06
2023-11-30T09:57:00,mcc,62.60
2023-11-30T09:58:00,mcc,62.58
2023-11-30T09:59:00,mcc,71.00
2023-11-30T10:00:00,mcc,67.52
2023-11-30T10:01:00,mcc,67.02
2023-11-30T10:02:00,mcc,70.16
2023-11-30T10:03:00,mcc,67.77
2023-11-30T10:04:00,mcc,63.05
2023-11-30T10:05:00,mcc,63.68
2023-11-30T10:06:00,mcc,64.40
2023-11-30T10:07:00,mcc,63.86
2023-11-30T10:08:00,mcc,63.50
2023-11-30T10:09:00,mcc,60.89
2023-11-30T10:10:00,mcc,66.02
2023-11-30T10:11:00,mcc,65.11
2023-11-30T10:12:00,mcc,59.38
2023-11-30T10:13:00,mcc,65.39
2023-11-30T10:14:00,mcc,62.02
2023-11-30T10:15:00,mcc,56.61
2023-11-30T10:16:00,mcc,59.14
2023-11-30T10:17:00,mcc,62.05
2023-11-30T10:18:00,mcc,77.71
2023-11-30T10:19:00,mcc,71.13
2023-11-30T10:20:00,mcc,67.12
2023-11-30T10:21:00,mcc,65.72
2023-11-30T10:22:00,mcc,60.32
2023-11-30T10:23:00,mcc,59.05
2023-11-30T10:24:00,mcc,70.03
2023-11-30T10:25:00,mcc,62.54
2023-11-30T10:26:00,mcc,71.56
2023-11-30T10:27:00,mcc,88.48
2023-11-30T10:28:00,mcc,72.99
2023-11-30T10:29:00,mcc,60.46
2023-11-30T10:30:00,mcc,65.20
2023-11-30T10:31:00,mcc,63.64
2023-11-30T10:32:00,mcc,59.73
2023-11-30T10:33:00,mcc,60.24
2023-11-30T10:34:00,mcc,60.18
2023-11-30T10:35:00,mcc,62.67
2023-11-30T10:36:00,mcc,57.54
2023-11-30T10:37:00,mcc,67.88
2023-11-30T10:38:00,mcc,61.13
2023-11-30T10:39:00,mcc,62.81
2023-11-30T10:40:00,mcc,62.08
2023-11-30T10:41:00,mcc,58.09
2023-11-30T10:42:00,mcc,60.92
2023-11-30T10:43:00,mcc,68.32
2023-11-30T10:44:00,mcc,61.57
2023-11-30T10:45:00,mcc,60.49
2023-11-30T10:46:00,mcc,64.00
2023-11-30T10:47:00,mcc,63.39
2023-11-30T10:48:00,mcc,66.44
2023-11-30T10:49:00,mcc,65.17
2023-11-30T10:50:00,mcc,63.97
2023-11-30T10:51:00,mcc,71.67
2023-11-30T10:52:00,mcc,62.70
2023-11-30T10:53:00,mcc,62.16
2023-11-30T10:54:00,mcc,60.20
2023-11-30T10:55:00,mcc,61.39
2023-11-30T10:56:00,mcc,59.05
2023-11-30T10:57:00,mcc,58.69
2023-11-30T10:58:00,mcc,62.24
2023-11-30T10:59:00,mcc,61.16
2023-11-30T11:00:00,mcc,67.01
2023-11-30T11:01:00,mcc,76.25
2023-11-30T11:02:00,mcc,73.26
2023-11-30T11:03:00,mcc,85.05
2023-11-30T11:04:00,mcc,70.56
2023-11-30T11:05:00,mcc,66.57
2023-11-30T11:06:00,mcc,64.53
2023-11-30T11:07:00,mcc,62.13
2023-11-30T11:08:00,mcc,71.06
2023-11-30T11:09:00,mcc,71.78
2023-11-30T11:10:00,mcc,64.83
2023-11-30T11:11:00,mcc,78.02
2023-11-30T11:12:00,mcc,70.36
2023-11-30T11:13:00,mcc,64.43
2023-11-30T11:14:00,mcc,69.57
2023-11-30T11:15:00,mcc,71.09
2023-11-30T11:16:00,mcc,68.40
2023-11-30T11:17:00,mcc,71.15
2023-11-30T11:18:00,mcc,64.56
2023-11-30T11:19:00,mcc,72.08
2023-11-30T11:20:00,mcc,60.32
2023-11-30T11:21:00,mcc,59.79
2023-11-30T11:22:00,mcc,61.01
2023-11-30T11:23:00,mcc,59.16
2023-11-30T11:24:00,mcc,59.94
2023-11-30T11:25:00,mcc,59.47
2023-11-30T11:26:00,mcc,67.08
2023-11-30T11:27:00,mcc,76.78
2023-11-30T11:28:00,mcc,83.17
2023-11-30T11:29:00,mcc,60.95
2023-11-30T11:30:00,mcc,70.30
2023-11-30T11:31:00,mcc,62.28
2023-11-30T11:32:00,mcc,61.03
2023-11-30T11:33:00,mcc,58.29
2023-11-30T11:34:00,mcc,56.81
2023-11-30T11:35:00,mcc,64.56
2023-11-30T11:36:00,mcc,62.14
2023-11-30T11:37:00,mcc,63.18
2023-11-30T11:38:00,mcc,75.79
2023-11-30T11:39:00,mcc,83.11
2023-11-30T11:40:00,mcc,63.79
2023-11-30T11:41:00,mcc,74.93
2023-11-30T11:42:00,mcc,62.57
2023-11-30T11:43:00,mcc,68.14
2023-11-30T11:44:00,mcc,62.67
2023-11-30T11:45:00,mcc,61.25
2023-11-30T11:46:00,mcc,60.49
2023-11-30T11:47:00,mcc,69.02
2023-11-30T11:48:00,mcc,61.75
2023-11-30T11:49:00,mcc,78.34
2023-11-30T11:50:00,mcc,62.67
2023-11-30T11:51:00,mcc,59.46
2023-11-30T11:52:00,mcc,60.50
2023-11-30T11:53:00,mcc,61.36
2023-11-30T11:54:00,mcc,69.83
2023-11-30T11:55:00,mcc,67.41
2023-11-30T11:56:00,mcc,64.00
2023-11-30T11:57:00,mcc,64.12
2023-11-30T11:58:00,mcc,64.35
2023-11-30T11:59:00,mcc,71.54
2023-11-30T12:00:00,mcc,62.78
2023-11-30T12:01:00,mcc,65.10
2023-11-30T12:02:00,mcc,62.52
2023-11-30T12:03:00,mcc,63.95
2023-11-30T12:04:00,mcc,73.26
2023-11-30T12:05:00,mcc,63.26
2023-11-30T12:06:00,mcc,64.10
2023-11-30T12:07:00,mcc,78.66
2023-11-30T12:08:00,mcc,64.48
2023-11-30T12:09:00,mcc,72.48
2023-11-30T12:10:00,mcc,61.43
2023-11-30T12:11:00,mcc,60.13
2023-11-30T12:12:00,mcc,59.50
2023-11-30T12:13:00,mcc,65.04
2023-11-30T12:14:00,mcc,69.69
2023-11-30T12:15:00,mcc,73.14
2023-11-30T12:16:00,mcc,71.61
2023-11-30T12:17:00,mcc,70.80
2023-11-30T12:18:00,mcc,70.14
2023-11-30T12:19:00,mcc,68.77
2023-11-30T12:20:00,mcc,80.82
2023-11-30T12:21:00,mcc,67.00
2023-11-30T12:22:00,mcc,64.98
2023-11-30T12:23:00,mcc,64.08
2023-11-30T12:24:00,mcc,66.34
2023-11-30T12:25:00,mcc,74.41
2023-11-30T12:26:00,mcc,73.60
2023-11-30T12:27:00,mcc,69.27
2023-11-30T12:28:00,mcc,75.10
2023-11-30T12:29:00,mcc,66.79
2023-11-30T12:30:00,mcc,68.49
2023-11-30T12:31:00,mcc,67.01
2023-11-30T12:32:00,mcc,67.08
2023-11-30T12:33:00,mcc,65.42
2023-11-30T12:34:00,mcc,65.08
2023-11-30T12:35:00,mcc,78.19
2023-11-30T12:36:00,mcc,76.85
2023-11-30T12:37:00,mcc,68.29
2023-11-30T12:38:00,mcc,69.14
2023-11-30T12:39:00,mcc,72.94
2023-11-30T12:40:00,mcc,78.74
2023-11-30T12:41:00,mcc,82.62
2023-11-30T12:42:00,mcc,80.70
2023-11-30T12:43:00,mcc,79.46
2023-11-30T12:44:00,mcc,73.42
2023-11-30T12:45:00,mcc,70.81
2023-11-30T12:46:00,mcc,76.78
2023-11-30T12:47:00,mcc,71.68
2023-11-30T12:48:00,mcc,69.96
2023-11-30T12:49:00,mcc,71.53
2023-11-30T12:50:00,mcc,67.90
2023-11-30T12:51:00,mcc,77.71
2023-11-30T12:52:00,mcc,71.73
2023-11-30T12:53:00,mcc,70.43
2023-11-30T12:54:00,mcc,72.03
2023-11-30T12:55:00,mcc,74.45
2023-11-30T12:56:00,mcc,76.27
2023-11-30T12:57:00,mcc,81.12
2023-11-30T12:58:00,mcc,72.05
2023-11-30T12:59:00,mcc,65.03
2023-11-30T13:00:00,mcc,68.63
2023-11-30T13:01:00,mcc,73.84
2023-11-30T13:02:00,mcc,67.83
2023-11-30T13:03:00,mcc,71.83
2023-11-30T13:04:00,mcc,67.78
2023-11-30T13:05:00,mcc,91.85
2023-11-30T13:06:00,mcc,69.81
2023-11-30T13:07:00,mcc,68.37
2023-11-30T13:08:00,mcc,68.43
2023-11-30T13:09:00,mcc,68.20
2023-11-30T13:10:00,mcc,67.18
2023-11-30T13:11:00,mcc,76.38
2023-11-30T13:12:00,mcc,76.71
2023-11-30T13:13:00,mcc,69.19
2023-11-30T13:14:00,mcc,64.49
2023-11-30T13:15:00,mcc,68.65
2023-11-30T13:16:00,mcc,71.22
2023-11-30T13:17:00,mcc,66.54
2023-11-30T13:18:00,mcc,67.89